Location: Fort Worth, Tx
(32.7431°N, 97.3695°W)
Time: 11:30:59
(UTC-04:00)

AO-85 - Visible Passes

Search period start: 21 March 2023 00:00
Search period end: 31 March 2023 00:00
Orbit: 516 x 753 km, 64.8° (Epoch: 04 January)

Date Brightness Start Highest point End Pass type
(mag) Time Alt. Az. Time Alt. Az. Time Alt. Az.
21 Mar ? 22:05:58 10° NW 22:09:45 47° WSW 22:12:46 16° S visible
22 Mar ? 22:28:37 10° WNW 22:31:14 17° WSW 22:33:55 10° SSW visible
23 Mar ? 21:09:04 10° NNW 21:13:01 83° ENE 21:17:07 10° SSE visible
24 Mar ? 21:31:00 10° NW 21:34:33 33° WSW 21:38:16 10° S visible
25 Mar ? 21:54:24 10° W 21:55:58 12° WSW 21:57:34 10° SW visible
